Location: Clarks Summit,Pa.
(41.5000°N, 75.6000°W)
Time: 02:58:28
(UTC-05:00)

Envisat - Pass Details

Date: 03 December 2021
Orbit: 764 x 766 km, 98.2° (Epoch: 18 January)

Event Time Altitude Azimuth Distance (km) Brightness Sun altitude
Rises 06:10:03 0° 360° (N) 3,242 6.0 -11.3°
Reaches altitude 10° 06:12:43 10° 347° (NNW) 2,311 5.2 -10.8°
Maximum altitude 06:16:44 24° 295° (WNW) 1,547 4.0 -10.1°
Drops below altitude 10° 06:20:44 10° 242° (WSW) 2,298 5.1 -9.4°
Sets 06:23:24 0° 229° (SW) 3,219 6.0 -9.0°
